Find Starlink 30706

NORAD ID: 57947 Int'l Des: 2023-148 Owner: SPXS Country: US Constellation: starlink operational
LEOCIRCULAR

現在のビュー

3D地球を読み込み中...

About Starlink 30706

Starlink 30706 (NORAD 57947) is a starlink constellation satellite (v2 mini) launched Sep 25, 2023 by SPXS of US. It operates in LEO, CIRCULAR orbit with a mass of 730.00 kg.

Starlink 30706について

説明を読み込み中...

次回通過

Passes for default location (London). Set your location on the main map for personalized predictions.

高度履歴

Loading altitude history...

軌道要素

1 57947U 23148N 26175.88541314 .00000043 00000-0 12415-4 0 9999
2 57947 53.1607 245.0113 0001431 106.9851 253.1309 15.34395017154855
Epoch: Jun 24, 2026 • Age: 15 hours

現在のステータス

高度 475.7 km
速度 7.63 km/s
衛星直下点 -37.40°S, 103.58°E
打ち上げ日 Sep 25, 2023
運用期間 2.7 years
タイプ internet

技術仕様

分類 Payload
質量 730.00 kg
乾燥質量 700.00 kg
総質量 730.00 kg
長さ 0.30 m
直径 4.10 m
スパン 29.00 m
形状 Box + pan
製造者 SPXS
バスタイプ Starlink V2M
フェーズステータス In Orbit
所有者/国 SPXS/US

Most Searched